Location: Newark
(45.2500°N, 7.5833°E)
Time: 21:13:55
(UTC+00:00)

Tiros 1 - Visible Passes

Search period start: 19 January 2020 00:00
Search period end: 29 January 2020 00:00
Orbit: 630 x 664 km, 48.4° (Epoch: 19 January)

Date Brightness Start Highest point End Pass type
(mag) Time Alt. Az. Time Alt. Az. Time Alt. Az.
19 Jan 7.4 16:52:40 10° W 16:57:24 59° N 17:02:10 10° ENE visible
19 Jan 7.1 18:35:08 10° WNW 18:39:55 77° NNE 18:39:55 77° NNE visible
19 Jan 10.4 20:17:32 10° WNW 20:17:35 10° WNW 20:17:35 10° WNW visible
20 Jan 7.4 17:18:55 10° WNW 17:23:39 61° N 17:27:22 16° E visible
20 Jan 7.8 19:01:14 10° WNW 19:05:03 54° W 19:05:03 54° W visible
21 Jan 7.1 17:45:04 10° WNW 17:49:52 75° NNE 17:52:35 26° E visible
21 Jan 8.9 19:27:27 10° WNW 19:30:16 30° W 19:30:16 30° W visible
22 Jan 7.2 18:11:11 10° WNW 18:15:58 76° SSW 18:17:53 36° SE visible
22 Jan 9.8 19:54:02 10° W 19:55:35 16° WSW 19:55:35 16° WSW visible
23 Jan 7.2 16:55:02 10° WNW 16:59:48 72° NNE 17:04:37 10° E visible
23 Jan 8.1 18:37:22 10° WNW 18:41:55 44° SSW 18:43:20 34° S visible
24 Jan 7.3 17:21:07 10° WNW 17:25:54 79° SSW 17:30:43 10° ESE visible
24 Jan 9.1 19:03:53 10° W 19:07:40 23° SW 19:08:59 21° SSW visible
25 Jan 8.1 17:47:17 10° WNW 17:51:52 46° SSW 17:56:28 10° SE visible
25 Jan 10.0 19:32:00 10° WSW 19:33:13 11° SW 19:34:28 10° SW visible
26 Jan 9.3 18:13:46 10° W 18:17:39 25° SW 18:21:32 10° SSE visible
27 Jan 8.2 16:57:13 10° WNW 17:01:50 49° SSW 17:06:27 10° SE visible
27 Jan 10.1 18:41:27 10° WSW 18:43:13 12° SW 18:45:00 10° SSW visible
28 Jan 9.4 17:23:38 10° W 17:27:37 27° SW 17:31:37 10° SSE visible
